TimeMST,TemperatureF,Dew PointF,Humidity,Sea Level PressureIn,VisibilityMPH,Wind Direction,Wind SpeedMPH,Gust SpeedMPH,PrecipitationIn,Events,Conditions,WindDirDegrees,DateUTC
12:52 AM,-9.9,-16.1,74,30.63,10.0,Calm,Calm,-,N/A,,Clear,0,2013-01-16 07:52:00
1:52 AM,-13.0,-18.9,75,30.67,10.0,Calm,Calm,-,N/A,,Clear,0,2013-01-16 08:52:00
2:52 AM,-15.0,-20.0,78,30.67,10.0,Variable,4.6,-,N/A,,Clear,0,2013-01-16 09:52:00
3:52 AM,-17.0,-22.0,78,30.67,10.0,Calm,Calm,-,N/A,,Clear,0,2013-01-16 10:52:00
4:52 AM,-17.0,-23.1,74,30.72,10.0,Calm,Calm,-,N/A,,Clear,0,2013-01-16 11:52:00
5:52 AM,-18.0,-23.1,78,30.75,10.0,Calm,Calm,-,N/A,,Clear,0,2013-01-16 12:52:00
6:52 AM,-17.0,-20.9,82,30.82,10.0,Calm,Calm,-,N/A,,Clear,0,2013-01-16 13:52:00
7:52 AM,-13.0,-18.9,75,30.84,10.0,WNW,4.6,-,N/A,,Clear,290,2013-01-16 14:52:00
8:52 AM,-2.9,-11.9,65,30.81,8.0,Calm,Calm,-,N/A,,Clear,0,2013-01-16 15:52:00
9:52 AM,-2.9,-11.0,68,30.80,10.0,WSW,3.5,-,N/A,,Clear,250,2013-01-16 16:52:00
10:52 AM,3.9,-7.1,60,30.77,10.0,Calm,Calm,-,N/A,,Clear,0,2013-01-16 17:52:00
11:52 AM,10.9,-2.0,56,30.71,10.0,West,3.5,-,N/A,,Clear,260,2013-01-16 18:52:00
12:52 PM,17.1,1.0,50,30.62,10.0,West,4.6,-,N/A,,Clear,270,2013-01-16 19:52:00
1:52 PM,21.2,3.2,46,30.29,10.0,West,3.5,-,N/A,,Clear,260,2013-01-16 20:52:00
2:52 PM,21.9,3.9,46,30.60,10.0,Calm,Calm,-,N/A,,Clear,0,2013-01-16 21:52:00
3:52 PM,21.0,5.0,50,30.63,10.0,North,6.9,-,N/A,,Clear,360,2013-01-16 22:52:00
4:52 PM,17.1,3.9,56,30.69,10.0,North,4.6,-,N/A,,Clear,350,2013-01-16 23:52:00
5:52 PM,10.0,1.9,70,30.77,10.0,North,3.5,-,N/A,,Clear,360,2013-01-17 00:52:00
6:52 PM,5.0,-0.9,76,30.81,10.0,NW,6.9,-,N/A,,Clear,320,2013-01-17 01:52:00
7:52 PM,-0.0,-5.1,79,30.83,10.0,WNW,8.1,-,N/A,,Clear,300,2013-01-17 02:52:00
8:52 PM,-5.1,-8.0,87,30.82,10.0,Calm,Calm,-,N/A,,Clear,0,2013-01-17 03:52:00
9:52 PM,-7.1,-11.9,79,30.84,10.0,Calm,Calm,-,N/A,,Clear,0,2013-01-17 04:52:00
10:52 PM,-6.0,-9.9,83,30.81,10.0,Calm,Calm,-,N/A,,Clear,0,2013-01-17 05:52:00
11:52 PM,-8.0,-13.0,79,30.78,10.0,SW,3.5,-,N/A,,Clear,220,2013-01-17 06:52:00